Skip Page Navigation
NASA JPL Caltech
NASA Logo - Jet Propulsion Laboratory + View the NASA Portal
+ Near-Earth Object (NEO) Program
Search JPL
JPL Home Earth Solar System Stars & Galaxies Technology
JPL Solar System Dynamics
BODIES ORBITS EPHEMERIDES TOOLS PHYSICAL DATA DISCOVERY FAQ SITE MAP
JPL Small-Body Database Browser
Search: [ help ]  
8740 Vaclav (1998 AS8)
Classification: Main-belt Asteroid          SPK-ID: 2008740
Ephemeris | Orbit Diagram | Orbital Elements | Physical Parameters | Discovery Circumstances ]

[ show orbit diagram ]
Orbital Elements at Epoch 2457000.5 (2014-Dec-09.0) TDB
Reference: JPL 7 (heliocentric ecliptic J2000)
 Element Value Uncertainty (1-sigma)   Units 
e .006586001640798776 5.113e-08  
a 2.890750492849614 2.5758e-08 AU
q 2.871712005360566 1.4659e-07 AU
i 1.874699140782551 5.3286e-06 deg
node 180.1816548442545 0.00015921 deg
peri 209.9750627621671 0.00047332 deg
M 262.3574105582074 0.00044697 deg
tp 2457487.412727562010
(2016-Apr-08.91272756)
0.0022312 JED
period 1795.206199716956
4.92
2.3994e-05
6.569e-08
d
yr
n .2005340668145865 2.6803e-09 deg/d
Q 2.909788980338661 2.5928e-08 AU
  Orbit Determination Parameters
   # obs. used (total)      1370  
   data-arc span      8644 days (23.67 yr)  
   first obs. used      1990-12-12  
   last obs. used      2014-08-12  
   planetary ephem.      DE431  
   SB-pert. ephem.      SB431-BIG16  
   condition code      0  
   fit RMS      .50226  
   data source      ORB  
   producer      Otto Matic  
   solution date      2014-Sep-12 13:54:01  

Additional Information
 Earth MOID = 1.8706 AU 
 T_jup = 3.290 
[ show covariance matrix ]

Ephemeris | Orbit Diagram | Orbital Elements | Physical Parameters | Discovery Circumstances ]

Physical Parameter Table
Parameter Symbol Value Units Sigma Reference Notes
absolute magnitude H 13.1 mag n/a MPO263427  

8740 Vaclav (1998 AS8)          Discovered 1998-Jan-12 by Klet at Klet (046)
Reference: 19980511/Numbers.arcLast Updated: 2004-04-19

Alternate Designations
 1998 AS8 = 1991 UY2 = 1991 VO17 = 1993 BN13 = 1996 VN38 
Ephemeris | Orbit Diagram | Orbital Elements | Physical Parameters | Discovery Circumstances ]
ABOUT SSD CREDITS/AWARDS PRIVACY/COPYRIGHT GLOSSARY LINKS
FirstGov 2014-Sep-24 02:24 UT
(server date/time)  
NASA Home Page
Site Manager:   Donald K. Yeomans
Webmaster  Alan B. Chamberlin